Вернуться в каталог

STARLINK-36667

АктивенСвязьVLEO
NORAD 68975·PAYLOAD·🇺🇸 United States

Запущен May 1, 2026 с Cape Canaveral Space Force Station

Loading…

Ближайшие Пролёты (ближайшие 24 часа)

TLE

СвежийSource: CelesTrak SupGP

Эпоха: Sep 14, 2026, 23:26 UTC

1 68975C 26099AA  26257.97687500  .00017095  00000+0  50526-3 0  2574
2 68975  53.1565 101.3400 0001433  87.2020 147.6670 15.34370499    18

Отслеживайте STARLINK-36667 в реальном времени с AllMySat

Download on the App Store